�N����,����,�~����,�C��,���x,�C��,����,���ϕ���,�ő�u�ԕ���,�ő厞����,���˗�,�I�_���x,�n�����x,�ő啗���N��,DTYPE
"18/09/13","00:10",0.0,20.7,85.2,1013.8,310.6,1.1,1.8,317.5,0.00,18.2,23.0,"00:01:20",1
"18/09/13","00:20",0.0,20.5,86.9,1014.2,313.9,0.8,1.2,306.6,0.00,18.3,23.2,"00:10:48",1
"18/09/13","00:30",0.0,20.4,87.7,1014.0,320.4,1.0,1.3,327.2,0.00,18.3,23.1,"00:25:12",1
"18/09/13","00:40",0.0,20.2,88.3,1013.5,335.1,1.2,2.1,338.6,0.00,18.2,23.2,"00:35:04",1
"18/09/13","00:50",0.0,20.2,88.8,1014.0,324.8,1.1,1.3,320.4,0.00,18.3,23.1,"00:41:20",1
"18/09/13","01:00",0.0,20.2,89.8,1014.2,316.0,1.2,1.4,306.6,0.00,18.5,22.9,"00:50:56",1
"18/09/13","01:10",0.0,20.2,90.4,1013.8,303.9,0.7,1.1,318.7,0.00,18.6,23.0,"01:07:20",1
"18/09/13","01:20",0.0,20.1,90.8,1013.8,286.5,0.8,1.4,318.0,0.00,18.6,23.2,"01:19:28",1
"18/09/13","01:30",0.0,20.1,91.3,1013.8,311.9,0.6,1.3,304.4,0.00,18.7,23.1,"01:22:56",1
"18/09/13","01:40",0.0,20.1,91.6,1014.0,311.2,0.8,1.7,320.8,0.00,18.7,22.9,"01:32:56",1
"18/09/13","01:50",0.0,20.2,91.6,1014.0,331.4,1.1,1.7,341.3,0.00,18.8,23.0,"01:47:06",1
"18/09/13","02:00",0.0,20.1,91.8,1013.5,315.6,1.0,1.4,308.4,0.00,18.8,23.2,"01:57:04",1
"18/09/13","02:10",0.0,20.1,92.1,1014.0,295.7,0.8,1.4,316.6,0.00,18.8,23.2,"02:07:36",1
"18/09/13","02:20",0.0,20.0,92.5,1013.8,312.3,0.8,1.6,352.3,0.00,18.8,22.9,"02:19:20",1
"18/09/13","02:30",0.0,19.9,92.6,1013.8,313.3,1.1,1.8,335.0,0.00,18.7,23.0,"02:20:24",1
"18/09/13","02:40",0.0,19.8,92.3,1013.8,339.9,1.1,2.0,336.1,0.00,18.6,22.9,"02:39:04",1
"18/09/13","02:50",0.0,19.9,92.8,1013.5,319.9,1.0,1.8,339.1,0.00,18.7,22.8,"02:42:00",1
"18/09/13","03:00",0.0,19.8,92.7,1013.5,294.1,1.0,1.4,314.9,0.00,18.6,23.0,"02:57:04",1
"18/09/13","03:10",0.0,19.7,92.9,1013.5,287.7,0.8,1.4,256.5,0.00,18.6,22.9,"03:04:24",1
"18/09/13","03:20",0.0,19.7,93.0,1013.8,323.7,1.3,2.2,336.3,0.00,18.6,22.9,"03:15:04",1
"18/09/13","03:30",0.0,19.5,93.1,1013.5,299.0,0.7,1.3,355.1,0.00,18.4,23.0,"03:20:40",1
"18/09/13","03:40",0.0,19.4,93.2,1013.5,328.4,1.2,1.8,325.8,0.00,18.3,23.0,"03:36:16",1
"18/09/13","03:50",0.0,19.3,93.5,1013.8,295.7,0.6,1.6,324.7,0.00,18.3,22.9,"03:49:12",1
"18/09/13","04:00",0.0,19.2,93.8,1013.3,308.3,0.8,1.4,310.7,0.00,18.2,23.0,"03:50:08",1
"18/09/13","04:10",0.0,19.2,94.1,1013.3,321.6,1.1,1.7,318.6,0.00,18.3,22.8,"04:04:08",1
"18/09/13","04:20",0.0,19.2,94.0,1013.3,283.9,0.6,1.1,307.8,0.00,18.3,22.8,"04:18:48",1
"18/09/13","04:30",0.0,19.2,94.1,1013.3,288.9,0.8,1.6,322.4,0.00,18.3,22.9,"04:29:44",1
"18/09/13","04:40",0.0,19.2,94.1,1013.3,305.4,1.0,1.4,318.6,0.00,18.3,22.7,"04:32:00",1
"18/09/13","04:50",0.0,19.3,94.1,1013.3,335.5,1.1,2.1,333.7,0.00,18.4,22.8,"04:45:44",1
"18/09/13","05:00",0.0,19.3,94.3,1013.0,296.7,0.6,1.2,333.9,0.00,18.4,22.8,"04:50:32",1
"18/09/13","05:10",0.0,19.1,94.2,1013.3,319.3,1.0,1.6,335.0,0.00,18.2,22.9,"05:07:52",1
"18/09/13","05:20",0.0,19.0,94.4,1012.8,309.4,0.8,1.4,326.0,0.00,18.1,22.7,"05:12:08",1
"18/09/13","05:30",0.0,18.9,94.4,1013.0,324.1,1.1,1.4,324.8,0.00,18.0,22.9,"05:28:40",1
"18/09/13","05:40",0.0,18.7,94.6,1013.0,308.0,1.1,1.6,316.9,0.00,17.9,22.7,"05:30:08",1
"18/09/13","05:50",0.0,18.7,94.9,1013.5,301.4,1.0,1.7,311.5,0.00,17.9,22.7,"05:46:56",1
"18/09/13","06:00",0.0,18.9,94.8,1013.3,289.0,0.3,0.8,268.1,0.00,18.1,22.7,"05:58:24",1
"18/09/13","06:10",0.0,19.0,95.0,1013.0,320.9,0.7,1.3,319.2,0.00,18.2,22.5,"06:08:48",1
"18/09/13","06:20",0.0,19.1,94.8,1013.5,330.0,1.1,1.7,330.0,0.00,18.3,22.7,"06:10:48",1
"18/09/13","06:30",0.0,19.3,94.8,1013.5,332.2,1.0,1.7,321.5,0.00,18.5,22.6,"06:27:12",1
"18/09/13","06:40",0.0,19.4,94.1,1013.3,292.8,1.1,2.0,327.1,0.01,18.5,22.7,"06:31:20",1
"18/09/13","06:50",0.0,19.7,94.3,1013.5,291.2,1.0,1.4,314.6,0.01,18.8,22.5,"06:44:08",1
"18/09/13","07:00",0.0,19.7,93.4,1013.5,308.8,0.8,1.6,327.5,0.01,18.6,22.6,"06:55:04",1
"18/09/13","07:10",0.0,19.8,93.7,1013.5,338.1,1.1,1.9,354.3,0.01,18.8,22.6,"07:03:44",1
"18/09/13","07:20",0.0,20.1,92.9,1013.3,292.8,1.1,1.7,319.4,0.02,19.0,22.7,"07:15:52",1
"18/09/13","07:30",0.0,20.2,92.7,1013.8,296.9,1.1,2.0,324.0,0.03,19.0,22.8,"07:29:36",1
"18/09/13","07:40",0.0,20.4,91.5,1013.8,322.5,1.5,1.9,323.3,0.04,19.0,22.6,"07:31:04",1
"18/09/13","07:50",0.0,20.8,91.0,1013.3,328.5,1.0,1.4,336.0,0.04,19.3,22.5,"07:43:28",1
"18/09/13","08:00",0.0,21.0,89.4,1013.8,286.9,0.8,1.3,266.4,0.05,19.2,22.6,"07:59:52",1
"18/09/13","08:10",0.0,21.2,88.0,1013.5,276.7,0.7,1.2,248.3,0.07,19.2,22.7,"08:05:12",1
"18/09/13","08:20",0.0,21.5,85.0,1013.8,276.9,0.6,1.0,304.2,0.09,18.9,23.0,"08:10:32",1
"18/09/13","08:30",0.0,22.0,81.6,1013.5,282.5,0.5,0.9,312.5,0.11,18.7,22.9,"08:25:44",1
"18/09/13","08:40",0.0,22.2,80.6,1013.5,266.3,0.3,0.6,285.6,0.09,18.7,23.0,"08:30:16",1
"18/09/13","08:50",0.0,23.3,77.9,1013.8,310.1,0.3,1.2,118.0,0.18,19.3,23.1,"08:48:16",1
"18/09/13","09:00",0.0,23.7,76.7,1013.5,151.2,1.0,2.2,163.0,0.26,19.4,23.1,"08:52:24",1
"18/09/13","09:10",0.0,25.0,73.2,1013.3,130.1,0.7,2.4,139.6,0.34,19.9,23.4,"09:01:20",1
"18/09/13","09:20",0.0,23.7,75.0,1012.8,127.6,1.1,2.7,116.3,0.27,19.0,23.5,"09:14:48",1
"18/09/13","09:30",0.0,24.0,73.3,1012.8,112.4,1.1,2.7,102.1,0.26,19.0,23.4,"09:24:16",1
"18/09/13","09:40",0.0,23.9,73.7,1012.3,126.6,0.8,2.5,128.6,0.20,19.0,23.6,"09:34:40",1
"18/09/13","09:50",0.0,24.1,73.2,1012.1,146.5,1.2,3.4,140.4,0.24,19.0,23.8,"09:46:56",1
"18/09/13","10:00",0.0,24.6,71.8,1012.3,112.7,1.1,2.4,135.8,0.29,19.2,23.7,"09:51:12",1
"18/09/13","10:10",0.0,24.2,73.1,1012.6,139.0,1.6,3.6,106.7,0.31,19.1,24.0,"10:07:04",1
"18/09/13","10:20",0.0,24.1,73.5,1011.6,150.5,1.3,3.6,170.1,0.22,19.1,24.1,"10:17:44",1
"18/09/13","10:30",0.0,24.1,73.4,1012.3,133.4,1.3,3.3,115.4,0.17,19.1,23.9,"10:22:16",1
"18/09/13","10:40",0.0,24.1,72.2,1012.1,107.9,1.3,2.9,186.0,0.17,18.8,24.1,"10:30:40",1
"18/09/13","10:50",0.0,23.9,73.8,1012.3,133.2,1.1,2.5,118.3,0.14,19.0,24.1,"10:43:04",1
"18/09/13","11:00",0.0,24.4,73.3,1012.6,109.8,1.2,2.9,101.2,0.17,19.4,24.1,"10:54:08",1
"18/09/13","11:10",0.0,24.3,73.2,1012.3,132.9,1.2,3.1,119.8,0.19,19.2,24.3,"11:01:36",1
"18/09/13","11:20",0.0,24.9,70.9,1011.9,104.9,1.0,2.1,113.2,0.26,19.3,24.3,"11:17:12",1
"18/09/13","11:30",0.0,25.9,69.5,1011.6,111.8,1.2,2.9,116.3,0.39,19.9,24.3,"11:26:56",1
"18/09/13","11:40",0.2,25.2,69.4,1011.2,109.7,1.6,5.1,104.9,0.32,19.2,24.5,"11:37:12",1
"18/09/13","11:50",0.0,25.3,71.3,1011.2,112.4,1.2,3.2,116.1,0.25,19.8,24.7,"11:43:44",1
"18/09/13","12:00",0.0,25.1,70.7,1011.2,152.6,1.8,3.7,175.0,0.25,19.4,24.6,"11:56:00",1
"18/09/13","12:10",0.0,26.0,69.9,1010.7,109.7,1.5,3.3,153.6,0.38,20.1,24.9,"12:05:20",1
"18/09/13","12:20",0.0,25.5,71.1,1011.2,123.9,1.6,3.9,113.8,0.37,19.9,24.9,"12:11:20",1
"18/09/13","12:30",0.0,26.0,66.6,1011.2,100.4,1.3,3.6,109.4,0.36,19.3,25.0,"12:26:40",1
"18/09/13","12:40",0.0,26.1,68.8,1011.2,66.2,1.0,2.4,49.7,0.24,20.0,25.1,"12:30:48",1
"18/09/13","12:50",0.0,25.7,68.3,1011.2,101.2,1.3,2.6,85.7,0.22,19.5,25.2,"12:40:32",1
"18/09/13","13:00",0.0,25.7,68.1,1010.9,91.8,1.2,2.9,114.9,0.18,19.4,25.2,"12:51:36",1
"18/09/13","13:10",0.0,25.8,70.6,1010.9,124.8,1.0,2.4,122.1,0.20,20.1,25.2,"13:06:40",1
"18/09/13","13:20",0.0,26.1,68.1,1010.4,95.6,1.1,2.7,112.6,0.21,19.8,25.4,"13:11:20",1
"18/09/13","13:30",0.0,26.3,67.6,1010.2,93.3,1.2,2.4,119.0,0.32,19.9,25.3,"13:28:08",1
"18/09/13","13:40",0.0,25.8,68.6,1010.4,109.6,1.1,2.9,98.7,0.19,19.6,25.2,"13:32:48",1
"18/09/13","13:50",0.0,26.0,68.8,1010.2,89.2,1.0,2.6,89.2,0.16,19.9,25.5,"13:43:12",1
"18/09/13","14:00",0.0,25.9,68.5,1010.2,92.7,1.1,2.4,1.8,0.16,19.7,25.5,"13:59:44",1
"18/09/13","14:10",0.0,25.9,71.3,1010.0,76.7,0.8,2.5,7.3,0.17,20.3,25.6,"14:00:32",1
"18/09/13","14:20",0.0,25.9,69.1,1010.4,92.2,0.7,1.8,36.5,0.15,19.8,25.5,"14:12:16",1
"18/09/13","14:30",0.0,26.1,69.5,1010.0,95.0,0.8,1.7,102.6,0.13,20.1,25.4,"14:24:40",1
"18/09/13","14:40",0.0,25.9,70.3,1010.2,74.0,0.7,2.0,114.0,0.10,20.1,25.5,"14:30:40",1
"18/09/13","14:50",0.0,26.5,66.9,1010.4,58.7,0.7,1.7,343.5,0.09,19.9,25.5,"14:40:32",1
"18/09/13","15:00",0.0,25.7,72.0,1010.2,91.2,0.5,1.3,77.1,0.11,20.3,25.4,"14:51:52",1
"18/09/13","15:10",0.0,25.6,71.1,1010.2,112.8,0.6,1.7,35.9,0.12,20.0,25.7,"15:03:12",1
"18/09/13","15:20",0.0,26.0,70.4,1010.4,94.5,0.7,1.7,30.3,0.10,20.2,25.5,"15:14:32",1
"18/09/13","15:30",0.0,26.1,69.3,1010.4,47.0,0.7,2.0,357.4,0.06,20.1,25.3,"15:22:40",1
"18/09/13","15:40",0.0,25.8,68.6,1010.4,22.5,0.8,2.5,356.0,0.05,19.6,25.3,"15:36:32",1
"18/09/13","15:50",0.0,25.7,69.4,1010.7,7.6,1.0,2.5,357.5,0.05,19.7,25.4,"15:48:00",1
"18/09/13","16:00",0.0,25.6,71.5,1010.7,13.8,0.5,1.3,90.5,0.03,20.1,25.4,"15:52:48",1
"18/09/13","16:10",0.0,25.3,73.8,1010.4,335.9,0.5,1.4,331.3,0.02,20.3,25.1,"16:06:40",1
"18/09/13","16:20",0.0,24.9,74.8,1010.7,351.7,0.3,1.1,330.5,0.02,20.2,25.4,"16:10:02",1
"18/09/13","16:30",0.0,25.0,76.1,1010.7,323.9,0.6,1.2,344.6,0.03,20.5,25.5,"16:26:32",1
"18/09/13","16:40",0.0,24.8,79.3,1011.2,309.2,0.6,1.3,320.5,0.04,21.0,25.2,"16:34:32",1
"18/09/13","16:50",0.0,24.4,80.7,1011.4,346.3,0.8,1.6,0.0,0.02,20.9,25.0,"16:42:32",1
"18/09/13","17:00",0.0,24.3,82.4,1011.2,339.0,0.5,1.2,309.0,0.01,21.1,25.1,"16:50:08",1
"18/09/13","17:10",0.0,24.0,83.9,1011.6,268.3,0.3,0.8,239.9,0.00,21.1,25.2,"17:04:56",1
"18/09/13","17:20",0.0,23.6,84.4,1011.9,315.1,0.6,1.4,335.6,0.00,20.9,25.0,"17:12:08",1
"18/09/13","17:30",0.0,23.8,84.5,1011.6,321.6,1.0,1.4,331.7,0.00,21.1,25.0,"17:26:56",1
"18/09/13","17:40",0.2,23.6,85.9,1011.9,320.2,0.8,1.6,296.4,0.00,21.1,25.0,"17:30:24",1
"18/09/13","17:50",0.2,23.2,86.7,1011.6,309.5,0.7,1.1,329.5,0.00,20.9,24.9,"17:44:00",1
"18/09/13","18:00",0.0,22.9,88.4,1011.6,320.7,1.1,2.0,334.1,0.00,20.9,24.9,"17:56:00",1
"18/09/13","18:10",0.2,22.6,89.4,1011.9,301.7,1.1,2.1,335.5,0.00,20.8,24.8,"18:00:08",1
"18/09/13","18:20",0.0,22.4,90.0,1011.6,293.9,0.7,1.4,309.9,0.00,20.7,24.7,"18:16:56",1
"18/09/13","18:30",0.0,22.3,90.7,1011.4,302.4,0.7,1.3,329.9,0.00,20.7,24.7,"18:24:40",1
"18/09/13","18:40",0.2,22.1,90.9,1011.4,284.5,0.7,1.0,306.4,0.00,20.6,24.6,"18:32:16",1
"18/09/13","18:50",0.0,21.9,91.3,1011.2,269.2,0.7,1.0,238.6,0.00,20.5,24.6,"18:42:00",1
"18/09/13","19:00",0.0,21.9,91.8,1011.4,295.9,0.7,1.1,327.0,0.00,20.5,24.7,"18:57:52",1
"18/09/13","19:10",0.0,21.8,92.0,1011.4,279.5,0.2,0.5,296.1,0.00,20.5,24.6,"19:09:52",1
"18/09/13","19:20",0.0,21.8,92.6,1011.6,279.4,0.5,0.6,273.1,0.00,20.6,24.5,"19:11:04",1
"18/09/13","19:30",0.0,21.7,92.7,1011.9,307.7,0.8,1.6,334.9,0.00,20.5,24.5,"19:29:52",1
"18/09/13","19:40",0.0,21.7,92.9,1012.1,317.6,1.0,1.4,332.2,0.00,20.5,24.6,"19:30:24",1
"18/09/13","19:50",0.0,21.7,93.2,1012.1,284.1,0.6,1.1,272.5,0.00,20.6,24.2,"19:41:28",1
"18/09/13","20:00",0.0,21.6,93.5,1012.1,310.6,0.7,1.0,314.7,0.00,20.5,24.2,"19:53:20",1
"18/09/13","20:10",0.0,21.7,93.5,1012.3,333.6,1.1,2.0,340.1,0.00,20.6,24.2,"20:06:24",1
"18/09/13","20:20",0.0,21.5,93.4,1012.3,286.4,0.7,1.4,311.0,0.00,20.4,24.2,"20:18:24",1
"18/09/13","20:30",0.0,21.6,93.9,1012.3,324.8,1.0,1.3,337.2,0.00,20.6,24.3,"20:23:12",1
"18/09/13","20:40",0.0,21.7,93.7,1012.3,329.3,1.1,1.6,319.0,0.00,20.7,24.1,"20:31:04",1
"18/09/13","20:50",0.0,21.7,94.2,1012.1,312.4,0.7,1.2,314.8,0.00,20.8,24.1,"20:46:48",1
"18/09/13","21:00",0.0,21.6,94.2,1012.1,262.9,0.3,1.0,268.5,0.00,20.7,24.1,"20:54:40",1
"18/09/13","21:10",0.0,21.7,94.4,1012.3,317.0,0.8,1.3,315.6,0.00,20.8,24.1,"21:02:48",1
"18/09/13","21:20",0.0,21.7,94.3,1012.6,328.2,1.3,2.2,337.1,0.00,20.8,24.3,"21:18:00",1
"18/09/13","21:30",0.2,21.7,94.3,1012.8,292.5,0.6,1.8,340.9,0.00,20.8,24.0,"21:21:28",1
"18/09/13","21:40",0.0,21.6,94.2,1012.6,287.5,0.8,1.3,307.4,0.00,20.7,24.1,"21:37:20",1
"18/09/13","21:50",0.2,21.6,94.5,1012.3,296.3,0.7,1.2,308.3,0.00,20.7,24.0,"21:46:24",1
"18/09/13","22:00",0.0,21.5,94.6,1012.6,318.6,1.1,1.8,317.5,0.00,20.6,23.9,"21:57:20",1
"18/09/13","22:10",0.0,21.6,94.6,1012.6,306.5,0.7,1.2,328.1,0.00,20.7,23.9,"22:00:08",1
"18/09/13","22:20",0.2,21.6,94.9,1012.6,309.0,0.7,1.0,325.1,0.00,20.8,23.9,"22:18:16",1
"18/09/13","22:30",0.0,21.6,94.7,1012.6,279.3,0.5,0.9,331.0,0.00,20.8,23.9,"22:20:40",1
"18/09/13","22:40",0.0,21.5,94.9,1012.6,267.2,0.5,0.9,241.4,0.00,20.7,24.1,"22:38:48",1
"18/09/13","22:50",0.0,21.5,95.0,1012.8,310.7,0.7,1.2,321.5,0.00,20.7,23.9,"22:45:52",1
"18/09/13","23:00",0.0,21.6,95.0,1012.6,316.1,0.8,1.6,333.8,0.00,20.8,23.8,"22:58:08",1
"18/09/13","23:10",0.0,21.5,95.0,1012.8,294.2,0.5,1.1,333.3,0.00,20.7,24.0,"23:00:24",1
"18/09/13","23:20",0.0,21.5,95.1,1012.6,281.0,0.5,0.8,274.1,0.00,20.7,23.9,"23:10:24",1
"18/09/13","23:30",0.0,21.5,95.3,1012.6,315.0,0.7,1.2,321.7,0.00,20.8,23.7,"23:28:48",1
"18/09/13","23:40",0.2,21.5,95.3,1012.6,319.0,0.8,1.3,351.2,0.00,20.8,23.7,"23:36:24",1
"18/09/13","23:50",0.0,21.4,95.2,1012.3,279.8,0.5,1.0,239.7,0.00,20.6,23.8,"23:40:24",1
"18/09/13","24:00",0.0,21.5,95.4,1012.8,302.6,0.3,1.0,325.4,0.00,20.8,23.7,"23:59:52",1
